Find Globalstar M071

NORAD ID: 31576 Int'l Des: 2007-020 Owner: GLOB Country: US Constellation: globalstar operational
LEOCIRCULAR

現在のビュー

3D地球を読み込み中...

About Globalstar M071

Globalstar M071 (NORAD 31576) is a globalstar constellation satellite launched May 29, 2007 by GLOB of US. It operates in LEO, CIRCULAR orbit with a mass of 450.00 kg.

Globalstar M071について

説明を読み込み中...

次回通過

Passes for default location (London). Set your location on the main map for personalized predictions.

高度履歴

Loading altitude history...

軌道要素

1 31576U 07020F 26194.07087544 -.00000129 00000-0 -37599-3 0 9998
2 31576 52.0026 215.4996 0001012 187.2994 203.1974 12.18271309542583
Epoch: Jul 13, 2026 • Age: 27 hours

現在のステータス

高度 1611.3 km
遠地点 / 近地点 N/A
速度 7.07 km/s
衛星直下点 -36.91°S, 70.25°E
打ち上げ日 May 29, 2007
運用期間 19.1 years
タイプ communications

技術仕様

分類 Payload
質量 450.00 kg
乾燥質量 380.00 kg
総質量 450.00 kg
長さ 1.50 m
直径 0.60 m
スパン 12.00 m
形状 Box + 2 Pan
製造者 LOR
バスタイプ LS-400
フェーズステータス In Orbit
所有者/国 GLOB/US

Most Searched